Regional Weather Roundup
Issued by NWS

Home | Current Version | Previous Version | Text Only | Print | Product List | Glossary On
Versions: 1 2 3 4 5 6 7 8 9 10 11 12 13 14 15 16 17 18 19 20 21 22 23 24 25 26 27 28 29 30 31 32 33 34 35 36 37 38 39 40 41 42 43 44 45 46 47 48 49 50
000
ASUS44 KFWD 231701
RWRTX
NORTH TEXAS HOURLY WEATHER ROUNDUP
NATIONAL WEATHER SERVICE FORT WORTH TX
1200 PM CDT SUN APR 23 2017

NOTE: "FAIR" INDICATES FEW OR NO CLOUDS BELOW 12,000 FEET WITH NO
SIGNIFICANT WEATHER AND/OR OBSTRUCTIONS TO VISIBILITY.

TXZ118-119-231800-
DALLAS/FORT WORTH METROPLEX

CITY           SKY/WX    TMP DP  RH WIND       PRES   REMARKS
DFW AIRPORT    SUNNY     68  41  37 N13       30.15F
DALLAS LOVE    MOSUNNY   67  42  40 NW8G18    30.15F
FTW MEACHAM    SUNNY     69  43  38 N10       30.16F
DAL-EXECUTIVE  SUNNY     67  42  40 N12G23    30.15F
FTW-ALLIANCE   SUNNY     68  40  35 N9        30.16F
FTW-NAS-JRB    SUNNY     66  43  43 NW8       30.17F
FTW-SPINKS     SUNNY     66  43  42 N3        30.18F
ARLINGTON      SUNNY     65  42  43 N13       30.16F
GRAND PRAIRIE  SUNNY     64  41  42 NW7       30.17F
ADDISON        SUNNY     64  43  45 N8G17     30.16F
MESQUITE       SUNNY     64  43  45 N10G17    30.16S
LANCASTER      SUNNY     65  45  48 NW10G17   30.17S
$$

TXZ091>094-102>105-117-120-121-131>134-231800-
NORTH CENTRAL TEXAS

CITY           SKY/WX    TMP DP  RH WIND       PRES   REMARKS
SHRMAN/DENISON SUNNY     64  43  46 N12G21    30.17S
GAINESVILLE    SUNNY     64  40  40 N13G18    30.18F
BOWIE          SUNNY     65  40  40 N6        30.18F
BRIDGEPORT     SUNNY     65  39  38 NW9       30.20F
DECATUR        SUNNY     64  37  35 NW9G16    30.18S
DENTON         SUNNY     66  42  41 NW13      30.16F
MCKINNEY       SUNNY     65  44  46 N14       30.15F
BONHAM         SUNNY     63  43  48 N12G18    30.14F
GREENVILLE     SUNNY     68  43  40 N9G20     30.14F
ROCKWALL       SUNNY     64  45  50 N8G17     30.15F
TERRELL        SUNNY     65  41  41 N12G20    30.15S
WAXAHACHIE     MOSUNNY   65  43  45 NW9       30.17F
GRANBURY       SUNNY     65  42  41 NW6       30.19F
$$

TXZ083>090-098>101-113>116-127>130-139>142-154-155-231800-
WESTERN NORTH TEXAS

CITY           SKY/WX    TMP DP  RH WIND       PRES   REMARKS
WICHITA FALLS  SUNNY     66  36  32 N9        30.19F
WF-KICKAPOO    SUNNY     65  33  30 N10G20    30.21F
VERNON         SUNNY     65  25  21 NW6       30.22F
ABILENE        SUNNY     64  35  34 NW10      30.23F
ABILENE-DYESS  SUNNY     64  35  34 N8        30.22F
BRECKENRIDGE   SUNNY     67  31  26 N7        30.20F
CISCO          SUNNY     64  34  32 N9G16     30.22F
RANGER         SUNNY     64  37  37 N8G17     30.21S
MINERAL WELLS  SUNNY     68  35  29 N17G23    30.17F
STEPHENVILLE   SUNNY     65  36  33 N12G18    30.22F
COMANCHE       SUNNY     64  39  39 N15       30.21F
COLEMAN        SUNNY     64  34  32 N10       30.22F
$$

TXZ143>147-156>162-174-175-231800-
CENTRAL TEXAS

CITY           SKY/WX    TMP DP  RH WIND       PRES   REMARKS
WACO           SUNNY     66  45  46 N9G18     30.17F
WACO-MCGREGOR  SUNNY     66  42  41 N13       30.18F
HILLSBORO      SUNNY     65  43  45 N10G16    30.17F
CORSICANA      SUNNY     66  45  46 N12G17    30.16F
MEXIA          SUNNY     64  43  46 N12       30.15S
HEARNE         SUNNY     65  43  45 N17G26    30.16F
CAMERON        SUNNY     66  43  43 N15G21    30.16F
TEMPLE         SUNNY     66  45  46 N7G21     30.18F
KILLEEN        SUNNY     65  42  42 NE14G21   30.17F
KILLEEN-SKYLRK SUNNY     66  42  41 N12G21    30.18F
FORT HOOD      SUNNY     66  42  40 N15G21    30.15F
GATESVILLE     SUNNY     64  39  39 N12G17    30.20F
HAMILTON       SUNNY     66  39  37 N13G18    30.20F
LAMPASAS       SUNNY     64  41  42 N7G17     30.18F
$$

TXZ095>097-106>112-122>126-135>138-148>153-164>167-231800-
EAST TEXAS

CITY           SKY/WX    TMP DP  RH WIND       PRES   REMARKS
PARIS          SUNNY     63  43  48 N9        30.12S
SULPHUR SPRNGS SUNNY     64  44  47 N9        30.14F
GILMER         SUNNY     62  43  49 N12G17    30.09F
MINEOLA        SUNNY     64  43  45 NW10      30.12F
TYLER          SUNNY     65  42  43 N15G22    30.11F
LONGVIEW       MOSUNNY   65  45  48 N10G21    30.08F
MARSHALL       SUNNY     65  42  43 NW13G18   30.09F
ATHENS         MOSUNNY   63  41  45 NW13G18   30.12F
PALESTINE      SUNNY     65  47  51 NW16G23   30.14F
JACKSONVILLE   MOSUNNY   62  44  51 N12G18    30.13S
HENDERSON      MOSUNNY   64  44  47 NW10G17   30.11F
CENTER         PTSUNNY   64  48  55 N10G18    30.09F
NACOGDOCHES    MOSUNNY   64  46  52 N12       30.08F
LUFKIN         MOSUNNY   62  46  55 N15G21    30.09F
$$

SUPPLEMENTAL OBSERVATIONS (CENTRAL)

CITY           SKY/WX    TMP DP  RH WIND       PRES   REMARKS
$$

SUPPLEMENTAL OBSERVATIONS (WEST)

CITY           SKY/WX    TMP DP  RH WIND       PRES   REMARKS
$$

SUPPLEMENTAL OBSERVATIONS (EAST)

CITY           SKY/WX    TMP DP  RH WIND       PRES   REMARKS
$$

SUPPLEMENTAL OBSERVATIONS ARE A COLLECTION OF AUTOMATED INSTRUMENTS
THAT ARE MAINTAINED BY A VARIETY OF FEDERAL AND STATE AGENCIES.
CERTAIN ELEMENTS...SUCH AS HUMIDITY VALUES AND SUSTAINED WIND
SPEEDS...MAY BE APPROXIMATED.




USA.gov is the U.S. government's official web portal to all federal, state and local government web resources and services.